Hourly Weather Roundup
Issued by NWS Central Illinois

Home | Current Version | Previous Version | Text Only | Print | Product List | Glossary On
Versions: 1 2 3 4 5 6 7 8 9 10 11 12 13 14 15 16 17 18 19 20 21 22 23 24 25 26 27 28 29 30 31 32 33 34 35 36 37 38 39 40 41 42 43 44 45 46 47 48 49 50
000
NZUS43 KILX 042210
HWRILX

AREA WEATHER ROUNDUP
NATIONAL WEATHER SERVICE, LINCOLN IL
500 PM CDT TUE AUG 04 2015


CITY           SKY/WX    TMP DP  RH WIND       PRES   REMARKS
BLOOMINGTON    PTSUNNY   80  60  50 CALM      29.99F HX  81
CHAMPAIGN      PTSUNNY   79  59  50 NW5       29.99F HX  80
DANVILLE       PTSUNNY   79  61  53 NW5       29.96F HX  80
DECATUR        CLOUDY    81  56  42 NE3       29.98F HX  81
EFFINGHAM      PTSUNNY   79  63  58 N5        30.01R HX  80
FLORA          PTSUNNY   82  67  60 NE7       29.98F HX  84
GALESBURG        N/A    N/A N/A N/A MISG        N/A
JACKSONVILLE   CLOUDY    79  65  62 CALM      29.98S HX  80
LACON          CLOUDY    78  61  57 CALM      29.96F
LAWRENCEVILLE  CLOUDY    80  68  66 N13       29.98S HX  83
LITCHFIELD     PTSUNNY   78  65  64 E8        29.98S HX  80
$$


CITY           SKY/WX    TMP DP  RH WIND       PRES   REMARKS
LINCOLN        CLOUDY    82  58  43 S3        29.97S HX  82
MACOMB         CLOUDY    78  61  55 S3        30.02R
MATTOON        CLOUDY    79  63  57 N5        29.98F HX  80
MT CARMEL AP   PTSUNNY   82  64  54 N13       29.98R HX  84
OLNEY-NOBLE AP MOSUNNY   81  68  65 N7        29.97F HX  83
PARIS          PTSUNNY   79  62  56 NW5       29.99F HX  80
PEORIA         CLOUDY    80  59  48 CALM      29.98S HX  81
PONTIAC        PTSUNNY   78  63  60 NW6       29.98F HX  80
RANTOUL        PTSUNNY   82  61  47 NW7       29.98F HX  83
ROBINSON       PTSUNNY   75  69  81 CALM      29.98F
SPRINGFIELD    PTSUNNY   81  64  56 N5        29.98F HX  82
TAYLORVILLE    PTSUNNY   75  68  78 S3        29.98F
$$

...REGIONAL REPORTS...


CITY           SKY/WX    TMP DP  RH WIND       PRES   REMARKS
CHICAGO O`HARE PTSUNNY   80  53  39 NW10      29.96S HX  80
KANKAKEE       CLOUDY    79  56  45 W9        29.99S HX  80
MOLINE         CLOUDY    81  59  47 N7        29.95F HX  81
MOUNT STERLING NOT AVBL
MOUNT VERNON   CLOUDY    72  63  73 SE7       29.99F THUNDER
PITTSFIELD     CLOUDY    77  66  67 NE5       29.99S
QUINCY         CLOUDY    77  60  55 E6        29.98F
ROCKFORD       PTSUNNY   80  51  36 NW12      29.98F HX  80
$$


CITY           SKY/WX    TMP DP  RH WIND       PRES   REMARKS
BURLINGTON     PTSUNNY   76  65  68 S7        29.98S
CEDAR RAPIDS   PTSUNNY   80  62  54 CALM      29.96F HX  81
DES MOINES     PTSUNNY   78  58  49 E12       29.96S
KIRKSVILLE     CLOUDY    76  66  71 SE9       29.98F
OTTUMWA        PTSUNNY   76  62  62 E9        29.95F
ST LOUIS       CLOUDY    86  70  58 NE9       29.97S HX  90
$$


CITY           SKY/WX    TMP DP  RH WIND       PRES   REMARKS
TERRE HAUTE    PTSUNNY   80  62  54 N8        29.98F HX  81
EVANSVILLE     LGT RAIN  81  66  60 W16G22    29.96S HX  83
INDIANAPOLIS   PTSUNNY   81  57  43 W14       29.99S HX  81
LAFAYETTE      MOSUNNY   80  58  46 NW10      29.98F HX  80
MADISON        PTSUNNY   79  53  40 VRB7      29.97S
MILWAUKEE      PTSUNNY   79  51  37 N12G17    29.96S
$$




USA.gov is the U.S. government's official web portal to all federal, state and local government web resources and services.